EW3570 Weather Reports


Display with metric or nautical units.
time (UTC)temp
F
wind
direction
speed
MPH
gust
MPH
rain 1hr
in
rain 24hr
in
rain mn
in
humidity
%
barometer
mb
20191023075331 52 45 0.0 2.0 0.00 0.01 0.00 81 1014.9
20191023074812 53 338 0.0 2.0 0.00 0.01 0.00 81 1014.7
20191023074305 52 45 0.0 2.0 0.00 0.01 0.00 81 1014.8
20191023073758 52 315 0.0 2.0 0.00 0.01 0.00 81 1014.9
20191023073242 52 45 0.0 3.0 0.00 0.01 0.00 81 1014.9
20191023072733 52 135 0.0 3.0 0.00 0.01 0.00 81 1015.1
20191023072222 52 90 0.0 3.0 0.00 0.01 0.00 81 1014.9
20191023071717 52 0 2.0 4.0 0.00 0.01 0.00 81 1015.0
20191023071206 52 90 0.0 4.0 0.00 0.01 0.00 81 1014.9
20191023070701 52 45 2.0 4.0 0.00 0.01 0.00 81 1014.8
20191023070144 52 0 0.0 2.0 0.00 0.01 0.00 81 1014.9
20191023065632 52 45 0.0 2.0 0.00 0.01 0.00 81 1015.0
20191023065125 52 45 1.0 3.0 0.00 0.01 0.00 80 1015.2
20191023064611 52 90 0.0 6.0 0.00 0.01 0.00 80 1014.9
20191023064101 53 338 0.0 6.0 0.00 0.01 0.00 80 1015.0
20191023063551 53 0 1.0 2.0 0.00 0.01 0.00 80 1015.3
20191023063053 53 135 0.0 2.0 0.00 0.01 0.00 80 1015.0
20191023062545 52 0 1.0 3.0 0.00 0.01 0.00 80 1015.1
20191023062025 53 315 1.0 3.0 0.00 0.01 0.00 80 1015.2
20191023061510 53 45 0.0 1.0 0.00 0.01 0.00 80 1015.3
20191023061001 53 90 0.0 1.0 0.00 0.01 0.00 80 1015.1
20191023060450 53 135 0.0 2.0 0.00 0.01 0.00 80 1015.1
20191023055430 53 0 0.0 2.0 0.00 0.01 0.00 80 1015.3
20191023054920 53 0 0.0 2.0 0.00 0.01 0.00 80 1015.3
20191023054410 53 0 0.0 1.0 0.00 0.01 0.00 80 1015.2
20191023053912 53 45 0.0 2.0 0.00 0.01 0.00 80 1015.2
20191023053351 53 90 0.0 2.0 0.00 0.01 0.00 80 1015.4
20191023052852 53 180 0.0 4.0 0.00 0.01 0.00 80 1015.3
20191023052329 53 0 1.0 4.0 0.00 0.01 0.00 80 1015.3
20191023051819 53 0 1.0 3.0 0.00 0.01 0.00 80 1015.3
20191023051310 53 0 0.0 2.0 0.00 0.01 0.00 80 1015.3
20191023050801 53 315 0.0 3.0 0.00 0.01 0.00 80 1015.4
20191023050248 53 315 0.0 3.0 0.00 0.01 0.00 80 1015.1
20191023045739 53 90 0.0 2.0 0.00 0.01 0.00 80 1015.2
20191023045227 53 315 0.0 4.0 0.00 0.01 0.00 80 1015.1
20191023044210 53 45 2.0 5.0 0.00 0.01 0.00 80 1015.3
20191023043702 53 0 2.0 2.0 0.00 0.01 0.00 80 1015.3
20191023043200 53 0 1.0 2.0 0.00 0.01 0.00 80 1015.3
20191023042646 53 45 0.0 3.0 0.00 0.01 0.00 80 1015.5
20191023042127 53 45 0.0 3.0 0.00 0.01 0.00 80 1015.3
20191023041632 53 315 0.0 2.0 0.00 0.01 0.00 80 1015.5
20191023041109 53 135 0.0 4.0 0.00 0.01 0.00 80 1015.5
20191023040556 53 45 2.0 4.0 0.00 0.01 0.00 80 1015.4
20191023040046 53 45 2.0 4.0 0.00 0.01 0.00 80 1015.6
20191023035538 53 0 1.0 2.0 0.00 0.01 0.00 80 1015.7
20191023035042 53 45 0.0 2.0 0.00 0.01 0.00 79 1015.8
20191023034603 53 45 1.0 2.0 0.00 0.01 0.00 79 1016.0
20191023034245 53 0 1.0 2.0 0.00 0.01 0.00 79 1015.9
20191023032438 54 45 0.0 2.0 0.00 0.01 0.00 79 1015.9
20191023031928 54 90 0.0 2.0 0.00 0.01 0.00 79 1015.8
20191023031416 54 23 0.0 2.0 0.00 0.01 0.00 79 1016.1
20191023030907 54 180 0.0 2.0 0.00 0.01 0.00 79 1015.9
20191023030355 54 45 1.0 3.0 0.00 0.01 0.00 79 1016.0
20191023025847 54 45 2.0 3.0 0.00 0.01 0.00 79 1016.1
20191023025341 54 45 2.0 3.0 0.00 0.01 0.00 79 1016.2
20191023024825 54 135 0.0 4.0 0.00 0.01 0.00 79 1016.1
20191023024318 54 90 2.0 4.0 0.00 0.01 0.00 78 1016.1
20191023023817 54 0 2.0 4.0 0.00 0.01 0.00 78 1016.1
20191023023257 54 0 1.0 4.0 0.00 0.01 0.00 78 1016.0
20191023022754 54 0 0.0 3.0 0.00 0.01 0.00 78 1016.1
20191023022233 54 0 0.0 3.0 0.00 0.01 0.00 78 1016.1
20191023021727 54 0 1.0 2.0 0.00 0.01 0.00 78 1016.2
20191023021213 54 45 0.0 1.0 0.00 0.01 0.00 78 1016.3
20191023020707 54 0 0.0 4.0 0.00 0.01 0.00 78 1016.7
20191023020156 54 180 0.0 4.0 0.00 0.01 0.00 78 1016.5
20191023015656 54 270 0.0 2.0 0.00 0.01 0.00 78 1016.4
20191023015132 55 315 1.0 2.0 0.00 0.01 0.00 78 1016.2
20191023014622 55 135 1.0 2.0 0.00 0.01 0.00 78 1016.1
20191023014117 55 90 0.0 2.0 0.00 0.01 0.00 78 1016.5
20191023013602 55 0 1.0 2.0 0.00 0.01 0.00 78 1016.4
20191023013054 55 45 0.0 2.0 0.00 0.01 0.00 78 1016.7
20191023012544 55 45 0.0 2.0 0.00 0.01 0.00 78 1016.7
20191023012032 55 135 0.0 2.0 0.00 0.01 0.00 78 1016.7
20191023011522 55 45 0.0 1.0 0.00 0.01 0.00 78 1016.9
20191023011012 55 90 0.0 2.0 0.00 0.01 0.00 78 1017.1
20191023010501 55 90 0.0 3.0 0.00 0.01 0.00 79 1017.2
20191023005958 55 0 0.0 3.0 0.00 0.01 0.00 79 1017.1
20191023005441 55 90 0.0 2.0 0.00 0.01 0.00 78 1017.1
20191023004943 55 0 0.0 2.0 0.00 0.01 0.00 78 1017.1
20191023004420 55 45 1.0 2.0 0.00 0.01 0.00 78 1017.3
20191023003911 55 135 0.0 2.0 0.00 0.01 0.00 78 1017.3
20191023003403 55 23 0.0 2.0 0.00 0.01 0.00 78 1017.5
20191023002856 55 0 0.0 2.0 0.00 0.01 0.00 78 1017.1
20191023002339 55 315 2.0 4.0 0.00 0.01 0.00 78 1017.2
20191023001830 55 23 2.0 4.0 0.00 0.01 0.00 78 1017.2
20191023001327 55 0 0.0 2.0 0.00 0.01 0.00 78 1017.1
20191023000824 55 270 0.0 2.0 0.00 0.01 0.00 78 1017.5
20191023000259 55 0 1.0 2.0 0.00 0.01 0.00 78 1017.2
20191022235749 55 45 0.0 2.0 0.00 0.01 0.00 78 1017.5
20191022235238 55 0 0.0 4.0 0.00 0.01 0.00 79 1017.6
20191022234221 55 90 0.0 2.0 0.00 0.01 0.00 79 1017.4
20191022233721 55 23 0.0 4.0 0.00 0.01 0.00 79 1017.6
20191022233158 55 45 0.0 4.0 0.00 0.01 0.00 79 1017.6
20191022232650 55 0 2.0 4.0 0.00 0.01 0.00 79 1017.7
20191022232138 56 45 0.0 4.0 0.00 0.01 0.00 79 1017.8
20191022231630 56 0 0.0 1.0 0.00 0.01 0.00 79 1017.8
20191022231118 56 90 0.0 1.0 0.00 0.01 0.00 79 1017.8
20191022230616 56 0 0.0 1.0 0.00 0.01 0.00 79 1018.2
20191022230058 56 0 0.0 1.0 0.00 0.01 0.00 79 1018.1
20191022225547 56 135 0.0 1.0 0.00 0.01 0.00 79 1018.1
20191022225039 56 90 0.0 2.0 0.00 0.01 0.00 79 1018.2
20191022224527 56 135 0.0 2.0 0.00 0.01 0.00 78 1018.2
20191022224017 56 90 0.0 1.0 0.00 0.01 0.00 78 1018.4
20191022223507 56 45 0.0 2.0 0.00 0.01 0.00 78 1018.4
20191022223000 56 315 1.0 2.0 0.00 0.01 0.00 78 1018.4
20191022222449 56 90 1.0 2.0 0.00 0.01 0.00 78 1018.5
20191022221937 56 90 0.0 0.0 0.00 0.01 0.00 78 1018.6
20191022221426 56 90 0.0 1.0 0.00 0.01 0.00 78 1018.6
20191022220924 56 45 0.0 1.0 0.00 0.01 0.00 78 1018.5
20191022220405 56 203 0.0 1.0 0.00 0.01 0.00 78 1018.7
20191022215859 56 45 0.0 0.0 0.00 0.01 0.01 78 1018.7
20191022215346 56 90 0.0 1.0 0.00 0.01 0.01 78 1018.7
20191022214837 56 90 0.0 1.0 0.00 0.01 0.01 78 1019.1
20191022214331 56 90 0.0 0.0 0.00 0.01 0.01 79 1019.1
20191022213817 56 135 0.0 0.0 0.00 0.01 0.01 79 1019.2
20191022213306 56 90 0.0 1.0 0.00 0.01 0.01 79 1019.1
20191022212755 56 135 0.0 1.0 0.00 0.01 0.01 79 1019.1
20191022212245 56 45 0.0 1.0 0.00 0.01 0.01 79 1019.1
20191022211735 56 90 0.0 0.0 0.00 0.01 0.01 79 1018.9
20191022210716 56 135 0.0 0.0 0.00 0.01 0.01 78 1018.9
20191022210205 56 135 0.0 0.0 0.00 0.01 0.01 78 1019.1
20191022205706 56 135 0.0 0.0 0.00 0.01 0.01 78 1019.2
20191022205143 56 135 0.0 0.0 0.00 0.01 0.01 78 1019.1
20191022204638 56 135 0.0 0.0 0.00 0.01 0.01 78 1019.2
20191022204126 56 90 0.0 0.0 0.00 0.01 0.01 79 1019.2
20191022203613 56 90 0.0 0.0 0.00 0.01 0.01 79 1019.2
20191022203108 56 90 0.0 0.0 0.00 0.01 0.01 79 1019.4
20191022202553 56 90 0.0 0.0 0.00 0.01 0.01 79 1019.4
20191022202043 56 90 0.0 0.0 0.00 0.01 0.01 79 1019.4
20191022201535 56 90 0.0 0.0 0.00 0.02 0.01 78 1019.5
20191022201031 56 90 0.0 0.0 0.00 0.02 0.01 78 1019.5
20191022200522 56 90 0.0 0.0 0.00 0.02 0.01 78 1019.6
20191022200002 56 90 0.0 0.0 0.00 0.02 0.01 78 1019.5
20191022195451 56 90 0.0 0.0 0.00 0.02 0.01 78 1019.7
20191022194944 56 90 0.0 0.0 0.00 0.02 0.01 79 1019.6
20191022194431 56 135 0.0 0.0 0.00 0.02 0.01 79 1019.5
20191022193933 56 90 0.0 0.0 0.00 0.02 0.01 79 1019.5
20191022193411 56 90 0.0 0.0 0.00 0.02 0.01 79 1019.5
20191022192900 56 90 0.0 0.0 0.00 0.02 0.01 79 1019.7
20191022192353 56 90 0.0 0.0 0.00 0.02 0.01 79 1019.4
20191022191840 56 90 0.0 0.0 0.00 0.02 0.01 79 1019.6
20191022191331 56 90 0.0 0.0 0.00 0.02 0.01 79 1019.5
20191022190823 56 90 0.0 0.0 0.00 0.02 0.01 79 1019.5
20191022190322 56 90 0.0 0.0 0.00 0.02 0.01 79 1019.4
20191022185809 56 90 0.0 0.0 0.00 0.02 0.01 79 1019.6
20191022185250 56 90 0.0 0.0 0.00 0.02 0.01 79 1019.7
20191022184740 56 90 0.0 0.0 0.00 0.02 0.01 79 1019.8
20191022184229 56 90 0.0 0.0 0.00 0.02 0.01 79 1019.7
20191022183719 56 90 0.0 0.0 0.00 0.02 0.01 79 1019.9
20191022183211 56 90 0.0 0.0 0.00 0.02 0.01 79 1019.8
20191022182659 56 90 0.0 0.0 0.00 0.02 0.01 79 1019.9
20191022182148 56 90 0.0 0.0 0.00 0.02 0.01 79 1019.9
20191022181651 56 90 0.0 0.0 0.00 0.02 0.01 79 1020.0
20191022181128 56 90 0.0 0.0 0.00 0.02 0.01 79 1020.0
20191022180623 56 135 0.0 0.0 0.00 0.02 0.01 78 1020.0
20191022180108 57 135 0.0 0.0 0.00 0.02 0.01 78 1020.2
20191022175558 57 135 0.0 0.0 0.00 0.02 0.01 78 1020.0
20191022175048 57 135 0.0 0.0 0.00 0.02 0.01 78 1020.1
20191022174537 57 135 0.0 0.0 0.00 0.02 0.01 78 1020.2
20191022174030 57 135 0.0 0.0 0.00 0.02 0.01 78 1020.4
20191022173518 57 135 0.0 0.0 0.00 0.02 0.01 77 1020.4
20191022173011 57 135 0.0 0.0 0.00 0.02 0.01 77 1020.2
20191022172457 57 135 0.0 0.0 0.00 0.02 0.01 77 1020.4
20191022171953 57 135 0.0 0.0 0.00 0.02 0.01 77 1020.5
20191022171439 57 135 0.0 0.0 0.00 0.02 0.01 77 1020.3
20191022170933 57 135 0.0 0.0 0.00 0.02 0.01 77 1020.3
20191022170417 57 135 0.0 0.0 0.00 0.04 0.01 76 1020.1
20191022165911 57 135 0.0 0.0 0.00 0.04 0.01 76 1020.1
20191022165356 58 135 0.0 0.0 0.00 0.05 0.01 76 1020.2
20191022164848 58 135 0.0 0.0 0.00 0.05 0.01 76 1020.2
20191022164336 58 135 0.0 0.0 0.00 0.06 0.01 75 1020.3
20191022163826 58 135 0.0 0.0 0.00 0.07 0.01 75 1020.2
20191022163315 58 135 0.0 0.0 0.00 0.07 0.01 75 1020.2
20191022162818 58 135 0.0 0.0 0.00 0.07 0.01 74 1020.2
20191022162257 58 135 0.0 0.0 0.00 0.07 0.01 74 1020.1
20191022161757 58 135 0.0 1.0 0.00 0.07 0.01 74 1020.4
20191022161236 58 135 0.0 1.0 0.00 0.07 0.01 74 1020.3
20191022160737 58 135 0.0 0.0 0.00 0.07 0.01 74 1020.1
20191022160215 58 135 0.0 1.0 0.00 0.07 0.01 73 1020.2
20191022155719 58 90 0.0 2.0 0.00 0.07 0.01 73 1020.0
20191022155159 58 45 0.0 2.0 0.00 0.07 0.01 73 1019.9
20191022154644 58 45 0.0 1.0 0.00 0.07 0.01 73 1020.0
20191022154133 58 135 0.0 1.0 0.00 0.07 0.01 73 1020.2
20191022153624 58 90 0.0 1.0 0.00 0.07 0.01 73 1019.9
20191022153116 58 135 0.0 2.0 0.00 0.07 0.01 73 1020.0
20191022152607 58 0 0.0 2.0 0.00 0.07 0.01 72 1020.1
20191022152053 58 45 0.0 2.0 0.00 0.07 0.01 72 1020.1
20191022151543 58 270 0.0 2.0 0.00 0.07 0.01 72 1020.0
20191022151033 58 45 0.0 2.0 0.00 0.07 0.01 72 1020.1
20191022150525 58 90 0.0 1.0 0.00 0.07 0.01 72 1020.1
20191022150014 58 68 0.0 2.0 0.00 0.07 0.01 72 1019.9
20191022145512 58 0 0.0 2.0 0.00 0.07 0.01 72 1019.9
20191022144952 58 90 0.0 1.0 0.00 0.07 0.01 72 1020.2
20191022144442 58 90 0.0 1.0 0.00 0.07 0.01 72 1020.2
20191022143947 58 135 0.0 0.0 0.00 0.07 0.01 72 1020.1
20191022143427 58 135 0.0 2.0 0.00 0.07 0.01 72 1020.2
20191022142915 58 0 0.0 2.0 0.00 0.07 0.01 72 1020.2
20191022142403 58 90 0.0 2.0 0.00 0.07 0.01 72 1020.2
20191022141854 58 90 0.0 2.0 0.00 0.07 0.01 72 1020.2
20191022141343 58 0 0.0 2.0 0.00 0.07 0.01 72 1020.4
20191022140837 58 45 0.0 2.0 0.00 0.07 0.01 72 1020.5
20191022140321 58 90 0.0 3.0 0.00 0.07 0.01 72 1020.7
20191022135813 58 45 0.0 3.0 0.00 0.07 0.01 71 1020.3
20191022135313 58 45 1.0 2.0 0.00 0.07 0.01 72 1020.4
20191022134759 58 315 1.0 2.0 0.00 0.07 0.01 71 1020.5
20191022134255 58 45 0.0 2.0 0.00 0.07 0.01 72 1020.6
20191022133729 58 0 0.0 3.0 0.00 0.07 0.01 72 1020.7
20191022133220 58 0 2.0 3.0 0.00 0.07 0.01 71 1020.6
20191022132722 58 135 1.0 2.0 0.00 0.07 0.01 72 1020.8
20191022132209 58 180 0.0 2.0 0.00 0.07 0.01 72 1020.8
20191022131649 58 315 0.0 3.0 0.00 0.07 0.01 72 1020.6
20191022131139 58 45 1.0 3.0 0.00 0.07 0.01 72 1020.7
20191022130642 58 0 2.0 2.0 0.00 0.07 0.01 72 1020.8
20191022130131 58 0 1.0 2.0 0.00 0.07 0.01 72 1020.9
20191022125612 58 0 0.0 3.0 0.00 0.07 0.01 73 1020.8
20191022125059 58 0 0.0 3.0 0.00 0.07 0.01 72 1020.8
20191022124548 58 45 2.0 3.0 0.00 0.07 0.01 72 1021.0
20191022124038 58 90 1.0 2.0 0.00 0.07 0.01 72 1021.1
20191022123529 58 315 1.0 3.0 0.00 0.07 0.01 71 1021.0
20191022123020 58 315 2.0 3.0 0.00 0.07 0.01 71 1021.2
20191022122514 58 45 1.0 3.0 0.00 0.07 0.01 71 1021.1
20191022121958 58 270 0.0 2.0 0.00 0.07 0.01 71 1021.2
20191022121447 58 0 2.0 3.0 0.00 0.07 0.01 71 1021.2
20191022120946 58 45 1.0 3.0 0.00 0.07 0.01 71 1021.5
20191022120428 58 90 1.0 4.0 0.00 0.07 0.01 71 1021.5
20191022115922 58 90 0.0 4.0 0.00 0.07 0.01 71 1021.5
20191022115406 58 0 2.0 3.0 0.00 0.07 0.01 71 1021.2
20191022114909 58 0 1.0 4.0 0.00 0.07 0.01 71 1021.3
20191022114346 58 270 3.0 4.0 0.00 0.07 0.01 71 1021.3
20191022113838 58 68 0.0 3.0 0.00 0.07 0.01 71 1021.6
20191022113339 58 23 1.0 3.0 0.00 0.07 0.01 70 1021.3
20191022112823 58 0 0.0 4.0 0.00 0.07 0.01 70 1021.7
20191022112306 58 45 0.0 4.0 0.01 0.07 0.01 71 1021.6
20191022111755 58 338 3.0 4.0 0.01 0.07 0.01 70 1021.9
20191022111254 58 225 2.0 4.0 0.01 0.07 0.01 70 1021.9
20191022110738 58 0 1.0 4.0 0.01 0.07 0.01 70 1022.0
20191022110224 58 270 2.0 4.0 0.01 0.07 0.01 70 1022.1
20191022105714 58 315 1.0 3.0 0.01 0.07 0.01 70 1022.0
20191022105207 59 0 1.0 2.0 0.01 0.07 0.01 70 1022.1
20191022104710 59 315 1.0 2.0 0.01 0.07 0.01 70 1022.1
20191022104146 58 90 0.0 3.0 0.01 0.07 0.01 70 1022.0
20191022103638 58 293 1.0 3.0 0.01 0.07 0.01 70 1022.1
20191022103137 58 90 0.0 3.0 0.01 0.07 0.01 70 1022.1
20191022102614 58 45 0.0 3.0 0.00 0.06 0.00 71 1022.2
20191022102119 58 0 2.0 3.0 0.00 0.06 0.00 71 1022.1
20191022101553 57 45 0.0 3.0 0.00 0.06 0.00 72 1022.0
20191022101043 57 90 0.0 3.0 0.00 0.06 0.00 72 1022.1
20191022100534 57 0 1.0 3.0 0.00 0.06 0.00 72 1022.2
20191022100036 57 0 1.0 4.0 0.00 0.06 0.00 72 1022.1
20191022095516 57 338 2.0 4.0 0.00 0.06 0.00 73 1022.3
20191022095007 56 0 0.0 2.0 0.00 0.06 0.00 74 1022.1
20191022094452 56 45 0.0 1.0 0.00 0.06 0.00 74 1022.2
20191022093942 56 225 0.0 2.0 0.00 0.06 0.00 74 1022.0
20191022093432 55 45 0.0 3.0 0.00 0.06 0.00 74 1022.3
20191022092928 55 90 0.0 3.0 0.00 0.06 0.00 74 1022.0
20191022092412 55 45 2.0 2.0 0.00 0.06 0.00 75 1022.0
20191022091907 55 0 1.0 2.0 0.00 0.06 0.00 75 1022.3
20191022091352 55 180 1.0 2.0 0.00 0.06 0.00 76 1021.8
20191022090841 55 135 0.0 3.0 0.00 0.06 0.00 75 1022.0
20191022090333 55 45 0.0 3.0 0.00 0.06 0.00 75 1022.0
20191022085821 55 293 2.0 2.0 0.00 0.06 0.00 75 1022.0
20191022085317 55 315 0.0 2.0 0.00 0.06 0.00 75 1022.1
20191022084807 55 45 0.0 2.0 0.00 0.06 0.00 76 1022.1
20191022084250 55 315 1.0 2.0 0.00 0.06 0.00 77 1022.0
20191022083756 55 90 0.0 2.0 0.00 0.06 0.00 77 1022.1
20191022083230 55 90 0.0 2.0 0.00 0.06 0.00 78 1022.0
20191022082726 55 45 0.0 1.0 0.00 0.06 0.00 79 1021.8
20191022082209 54 90 0.0 1.0 0.00 0.06 0.00 80 1021.9
20191022081712 54 315 0.0 1.0 0.00 0.06 0.00 80 1021.7
20191022081151 54 0 0.0 0.0 0.00 0.06 0.00 81 1021.7
20191022080639 54 90 0.0 0.0 0.00 0.06 0.00 81 1021.6
20191022080128 53 90 0.0 0.0 0.00 0.06 0.00 81 1021.7
20191022075633 53 90 0.0 1.0 0.00 0.06 0.00 80 1021.6